[[{"header":{"parameterUnit":"m.s-1","parameterCategory":1,"la1":30.2991,"la2":30.254,"lo1":-89.0895,"lo2":-89.0444,"dy":0.0017,"dx":0.0017,"nx":28,"ny":28,"refTime":"2025-11-27T09:00:00:Z","depth":0,"parameterNumber":2,"parameterNumberName":"U-component_of_WINDS"},"data":[0,0,0,0,0,0,0,0,0,0,0,0,0,0,0,0,0,0,0,0,0,0,0,0,0,0,0,0,0,0,0,0,0,0,0,0,0,0,0,0,0,0,0,0,0,0,0,0,0,0,0,0,0,0,0,0,0,0,-3.9817,-3.9817,0,-3.9858,-3.9858,-3.9859,-3.9756,-3.9753,-3.9749,-3.9746,-3.9787,-3.9791,-3.9795,0,0,0,0,0,0,0,0,0,0,0,0,0,-3.9647,-3.9651,-3.9817,-3.9818,-3.9818,-3.9858,-3.9859,-3.9859,-3.9756,-3.9752,-3.9749,-3.9745,-3.9785,-3.979,-3.9795,0,0,0,0,0,0,0,0,0,0,0,0,0,-3.9708,-3.9652,-3.9817,-3.9772,-3.9768,-3.9858,-3.9859,-3.9859,-3.9757,-3.9752,-3.9747,-3.9743,-3.9784,-3.979,-3.9796,-3.9931,0,0,-3.9815,-3.9817,0,0,0,0,0,0,0,0,-3.9704,-3.9714,-3.9778,-3.9775,-3.9771,-3.9797,-3.9813,-3.9883,-3.9758,-3.9761,-3.9746,-3.9741,-3.9794,-3.9799,-3.9817,-3.9933,-3.9934,-3.9815,-3.9819,-3.9821,-3.9823,0,0,0,0,0,0,0,-3.97,-3.9712,-3.9833,-3.9779,-3.9775,-3.9748,-3.9752,-3.9826,-3.9804,-3.9761,-3.9753,-3.976,-3.9791,-3.9812,-3.9817,-3.9935,-3.9815,-3.982,-3.9824,-3.9827,-4.0161,-4.0166,0,0,0,0,0,0,-3.9702,-3.9709,-3.9832,-3.9834,-3.9725,-3.9755,-3.9759,-3.9793,-3.9803,-3.98,-3.9764,-3.9755,-3.9803,-3.981,-3.9818,-3.9976,-3.9821,-3.9827,-3.9831,-4.0156,-4.0162,-4.0168,0,0,0,0,0,0,-3.9699,-3.9714,-3.983,-3.977,-3.9782,-3.9763,-3.9803,-3.9797,-3.9817,-3.9806,-3.9801,-3.9789,-3.98,-3.981,-3.9903,-3.9976,-3.983,-3.9835,-4.015,-4.0158,-4.0165,-4.0293,0,0,0,0,0,0,-3.9695,-3.9714,-3.9766,-3.9772,-3.9786,-3.9916,-3.9807,-3.9801,-3.9828,-3.9817,-3.9828,-3.9825,-3.9797,-3.9895,-3.9909,-3.9981,-3.984,-4.0143,-4.0154,-4.0163,-4.0282,-4.0304,-4.0323,0,0,0,0,0,-3.9689,-3.98,-3.9769,-3.9784,-3.9851,-3.992,-3.9928,-3.9894,-3.9835,-3.9886,-3.9878,-3.9825,-3.9966,-3.9905,-3.9921,-3.9996,-4.0139,-4.0151,-4.0162,-4.0273,-4.0299,-4.0322,0,0,0,0,0,0,-3.9802,-3.98,-3.9765,-3.9882,-3.9902,-3.9903,-3.9966,-3.9924,-3.9961,-3.9948,-3.9904,-3.9907,-4.0009,-4.0012,-3.9944,-4.0126,-4.0042,-4.0057,-4.0121,-4.0146,-4.0166,-4.0163,-3.9845,0,0,0,0,0,-3.9841,-3.9899,-3.9893,-3.9996,-4.0008,-3.9986,-4.0015,-3.9987,-4.0005,-4.0013,-4.0012,-4.0032,-4.008,-4.0113,-4.0158,-4.0282,-4.0282,-4.0341,-4.0361,-4.0378,-4.0392,-4.0456,-4.0482,-4.0207,-4.0206,-4.0206,0,0,-3.9922,-3.9927,-3.9966,-4.0019,-4.0031,-4.009,-3.9994,-4.0061,-4.0104,-4.0023,-4.0111,-4.0112,-4.013,-4.024,-4.0288,-4.0245,-4.0468,-4.0393,-4.0407,-4.0411,-4.0471,-4.0497,-4.052,-4.0215,-4.0213,-4.0212,0,0,-4.0098,-4.0109,-4.0195,-4.0209,-4.0229,-4.0213,-4.0234,-4.0241,-4.0238,-4.0326,-4.0266,-4.0317,-4.0402,-4.0417,-4.0436,-4.0618,-4.0569,-4.0633,-4.0739,-4.0802,-4.0824,-4.0843,-4.0906,-4.093,-4.0647,-4.0647,-4.0647,0,-4.0195,-4.0283,-4.0245,-4.0316,-4.034,-4.027,-4.0356,-4.0372,-4.0405,-4.0423,-4.0375,-4.0479,-4.0487,-4.0598,-4.0642,-4.0661,-4.0682,-4.0631,-4.0824,-4.0843,-4.086,-4.0919,-4.0944,-4.0655,-4.0654,-4.0653,-4.0652,0,-4.04,-4.0462,-4.0529,-4.0563,-4.0595,-4.0673,-4.0646,-4.0683,-4.0652,-4.0641,-4.073,-4.0738,-4.0781,-4.0806,-4.0776,-4.0912,-4.0885,-4.0832,-4.0746,-4.0894,-4.0949,-4.0972,-4.0666,-4.0663,-4.0661,-4.0659,0,0,-4.0649,-4.0661,-4.0686,-4.07,-4.0716,-4.0762,-4.0837,-4.088,-4.0912,-4.0937,-4.0997,-4.1071,-4.1021,-4.1042,-4.1014,-4.107,-4.1211,-4.1009,-4.1008,-4.1045,-4.1359,-4.1398,-4.1426,-4.1179,-4.1183,-4.1187,-4.1357,0,-4.0822,-4.095,-4.0918,-4.1045,-4.1101,-4.1035,-4.1099,-4.1116,-4.1108,-4.1153,-4.1143,-4.1195,-4.1126,-4.1139,-4.1191,-4.1183,-4.1273,-4.117,-4.1234,-4.1236,-4.123,-4.1455,-4.1497,-4.1657,-4.1379,-4.1382,-4.1385,0,-4.1041,-4.1074,-4.1208,-4.1213,-4.1235,-4.1294,-4.133,-4.1375,-4.1392,-4.1381,-4.1406,-4.1366,-4.1438,-4.1353,-4.1451,-4.1381,-4.1405,-4.1405,-4.141,-4.1414,-4.1319,-4.1463,-4.1708,-4.1731,-4.1419,-4.1416,-4.1414,0,-4.1207,-4.1286,-4.1375,-4.1389,-4.1399,-4.1441,-4.1447,-4.1459,-4.1487,-4.1518,-4.1535,-4.1575,-4.1596,-4.1627,-4.1598,-4.1539,-4.17,-4.1613,-4.1693,-4.1694,-4.1729,-4.1727,-4.1979,-4.1747,-4.1747,-4.1746,-4.1746,0,-4.1403,-4.1487,-4.145,-4.1504,-4.1595,-4.1557,-4.1648,-4.1646,-4.1657,-4.171,-4.1655,-4.1705,-4.1665,-4.1711,-4.1689,-4.1773,-4.1783,-4.1776,-4.1769,-4.178,-4.1781,-4.1795,-4.1782,-4.1752,-4.1751,-4.175,-4.1749,0,-4.1604,-4.1583,-4.1675,-4.1677,-4.1679,-4.1746,-4.1747,-4.1797,-4.1784,-4.1851,-4.1865,-4.1845,-4.1897,-4.1871,-4.1925,-4.191,-4.2018,-4.1996,-4.2012,-4.2006,-4.2087,-4.2079,-4.2356,-4.2389,-4.2137,-4.2139,-4.2141,0,-4.173,-4.1792,-4.18,-4.1832,-4.1841,-4.1893,-4.192,-4.1885,-4.1915,-4.1939,-4.1986,-4.2033,-4.2068,-4.2153,-4.2143,-4.2184,-4.2162,-4.2256,-4.2168,-4.2176,-4.2161,-4.2158,-4.2163,-4.2274,-4.2277,-4.2279,-4.2281,0,-4.1954,-4.194,-4.1983,-4.2021,-4.2056,-4.2084,-4.2108,-4.2137,-4.2101,-4.2139,-4.2191,-4.2219,-4.2273,-4.232,-4.2355,-4.2359,-4.2314,-4.2309,-4.2329,-4.2341,-4.2347,-4.2343,-4.2059,-4.2303,-4.23,-4.2299,-4.2298,-4.2297,-4.212,-4.2172,-4.2186,-4.2234,-4.2248,-4.2272,-4.2318,-4.2312,-4.2355,-4.2396,-4.2373,-4.2433,-4.2447,-4.2489,-4.25,-4.2546,-4.2508,-4.2539,-4.2546,-4.2553,-4.2563,-4.2341,-4.2553,-4.2552,-4.2551,-4.2551,-4.255,0,-4.2341,-4.2346,-4.2391,-4.2426,-4.2464,-4.2419,-4.2442,-4.2477,-4.2531,-4.2548,-4.2584,-4.2643,-4.2688,-4.2681,-4.2722,-4.276,-4.274,-4.2772,-4.2768,-4.2769,-4.2596,-4.2573,-4.2787,-4.2787,-4.2787,-4.2787,-4.2787,-4.2787,-4.246,-4.2545,-4.2533,-4.2623,-4.2628,-4.2687,-4.2704,-4.2725,-4.2738,-4.2807,-4.2844,-4.2839,-4.2847,-4.2887,-4.2926,-4.2922,-4.2939,-4.2978,-4.2967,-4.2805,-4.2782,-4.2759,-4.2738,-4.2983,-4.2983,-4.3137,-4.3138,-4.3139]},{"header":{"parameterUnit":"m.s-1","parameterCategory":1,"la1":30.2991,"la2":30.254,"lo1":-89.0895,"lo2":-89.0444,"dy":0.0017,"dx":0.0017,"nx":28,"ny":28,"refTime":"2025-11-27T09:00:00:Z","depth":0,"parameterNumber":3,"parameterNumberName":"V-component_of_WINDS"},"data":[0,0,0,0,0,0,0,0,0,0,0,0,0,0,0,0,0,0,0,0,0,0,0,0,0,0,0,0,0,0,0,0,0,0,0,0,0,0,0,0,0,0,0,0,0,0,0,0,0,0,0,0,0,0,0,0,0,0,-4.6465,-4.6466,0,-4.6574,-4.6575,-4.6576,-4.6529,-4.6526,-4.6524,-4.6521,-4.6629,-4.6634,-4.664,0,0,0,0,0,0,0,0,0,0,0,0,0,-4.6212,-4.6217,-4.6465,-4.6466,-4.6468,-4.6574,-4.6575,-4.6577,-4.6529,-4.6526,-4.6523,-4.652,-4.6627,-4.6634,-4.664,0,0,0,0,0,0,0,0,0,0,0,0,0,-4.6322,-4.6219,-4.6465,-4.6457,-4.6458,-4.6573,-4.6575,-4.6577,-4.653,-4.6526,-4.6522,-4.6518,-4.6625,-4.6633,-4.6641,-4.677,0,0,-4.6665,-4.6669,0,0,0,0,0,0,0,0,-4.6315,-4.6331,-4.6457,-4.6458,-4.6459,-4.6534,-4.6525,-4.6642,-4.6531,-4.6502,-4.6521,-4.6516,-4.66,-4.661,-4.6639,-4.6775,-4.6779,-4.6666,-4.6671,-4.6674,-4.6677,0,0,0,0,0,0,0,-4.6308,-4.6326,-4.6508,-4.6459,-4.646,-4.6447,-4.6458,-4.6547,-4.6572,-4.6505,-4.6501,-4.6515,-4.66,-4.6632,-4.6641,-4.6781,-4.6666,-4.6673,-4.6678,-4.6681,-4.7025,-4.7029,0,0,0,0,0,0,-4.6301,-4.632,-4.6505,-4.6511,-4.6376,-4.6454,-4.6467,-4.6514,-4.6571,-4.6576,-4.6518,-4.6513,-4.662,-4.6632,-4.6645,-4.6798,-4.6674,-4.6682,-4.6686,-4.7021,-4.7026,-4.7031,0,0,0,0,0,0,-4.6296,-4.6318,-4.65,-4.6415,-4.6437,-4.6463,-4.6516,-4.6518,-4.6549,-4.6582,-4.6585,-4.6546,-4.6617,-4.6634,-4.6739,-4.6801,-4.6685,-4.6693,-4.7016,-4.7022,-4.7028,-4.7106,0,0,0,0,0,0,-4.6289,-4.6316,-4.6367,-4.6416,-4.6442,-4.6594,-4.652,-4.6523,-4.6564,-4.6557,-4.6609,-4.6614,-4.6615,-4.6727,-4.6747,-4.681,-4.6699,-4.701,-4.7019,-4.7026,-4.7098,-4.7114,-4.7128,0,0,0,0,0,-4.628,-4.6384,-4.6369,-4.6392,-4.6506,-4.6598,-4.6612,-4.6613,-4.6569,-4.6619,-4.6639,-4.6612,-4.6791,-4.6738,-4.676,-4.6827,-4.7006,-4.7016,-4.7026,-4.7091,-4.7111,-4.7128,0,0,0,0,0,0,-4.634,-4.639,-4.6375,-4.6499,-4.6544,-4.6589,-4.6652,-4.6634,-4.6692,-4.6684,-4.6681,-4.6693,-4.6802,-4.6825,-4.6765,-4.6953,-4.6892,-4.6906,-4.6934,-4.6953,-4.6968,-4.696,-4.6706,0,0,0,0,0,-4.6368,-4.644,-4.6479,-4.6584,-4.6608,-4.6627,-4.6667,-4.6663,-4.671,-4.6729,-4.6757,-4.6802,-4.6868,-4.6912,-4.6975,-4.7101,-4.7111,-4.7157,-4.7173,-4.7185,-4.7197,-4.7263,-4.7284,-4.7063,-4.7063,-4.7063,0,0,-4.6426,-4.6462,-4.6507,-4.6597,-4.6632,-4.6705,-4.6643,-4.6723,-4.6776,-4.6741,-4.6841,-4.6864,-4.6914,-4.7029,-4.7082,-4.7052,-4.726,-4.7197,-4.7207,-4.7213,-4.7276,-4.7296,-4.7315,-4.7069,-4.7068,-4.7067,0,0,-4.6568,-4.6604,-4.6694,-4.6731,-4.6785,-4.6796,-4.6818,-4.6866,-4.6879,-4.6981,-4.6955,-4.7017,-4.7132,-4.7169,-4.7202,-4.7357,-4.7333,-4.7378,-4.7457,-4.7521,-4.7539,-4.7554,-4.7607,-4.7627,-4.739,-4.739,-4.739,0,-4.6633,-4.6743,-4.6743,-4.6825,-4.6864,-4.6836,-4.6926,-4.6961,-4.7033,-4.706,-4.7026,-4.7168,-4.72,-4.7323,-4.7361,-4.7389,-4.7412,-4.7371,-4.7536,-4.7552,-4.7566,-4.7617,-4.7637,-4.7395,-4.7394,-4.7394,-4.7394,0,-4.6819,-4.6895,-4.6962,-4.7032,-4.7079,-4.7165,-4.7176,-4.7223,-4.7216,-4.723,-4.7332,-4.737,-4.7439,-4.7468,-4.7461,-4.759,-4.7569,-4.7536,-4.7474,-4.7592,-4.764,-4.7659,-4.7402,-4.74,-4.7399,-4.7398,0,0,-4.7002,-4.7071,-4.7095,-4.7126,-4.7183,-4.7241,-4.7325,-4.7393,-4.7433,-4.7483,-4.7551,-4.7649,-4.7618,-4.7656,-4.7653,-4.771,-4.7828,-4.767,-4.7671,-4.7696,-4.7969,-4.7993,-4.8016,-4.7813,-4.7817,-4.782,-4.7965,0,-4.7147,-4.7295,-4.7297,-4.7432,-4.7502,-4.7475,-4.7548,-4.7589,-4.7605,-4.7665,-4.7681,-4.775,-4.7705,-4.7728,-4.7783,-4.7802,-4.7883,-4.7792,-4.7875,-4.7878,-4.7862,-4.8041,-4.8067,-4.8201,-4.7983,-4.7987,-4.7989,0,-4.7337,-4.7393,-4.7535,-4.7581,-4.761,-4.7675,-4.7737,-4.7796,-4.7842,-4.7849,-4.7891,-4.7879,-4.7962,-4.7899,-4.8013,-4.7951,-4.7985,-4.7999,-4.8005,-4.8011,-4.794,-4.8051,-4.8245,-4.8264,-4.8019,-4.8016,-4.8014,0,-4.7454,-4.7566,-4.7665,-4.7692,-4.7748,-4.7794,-4.7819,-4.7862,-4.7902,-4.7956,-4.7982,-4.8045,-4.8078,-4.8126,-4.8131,-4.8085,-4.8245,-4.8182,-4.8251,-4.8251,-4.8286,-4.8283,-4.8486,-4.831,-4.831,-4.8309,-4.8309,0,-4.7615,-4.7703,-4.7718,-4.7779,-4.7875,-4.7876,-4.7971,-4.7992,-4.803,-4.8093,-4.8074,-4.8133,-4.8137,-4.8197,-4.8201,-4.8293,-4.8309,-4.8316,-4.8316,-4.8317,-4.8316,-4.8338,-4.8329,-4.8315,-4.8314,-4.8313,-4.8312,0,-4.7762,-4.7776,-4.7882,-4.7926,-4.7939,-4.8008,-4.8045,-4.8102,-4.8116,-4.8196,-4.8215,-4.8235,-4.8305,-4.8315,-4.8397,-4.8399,-4.851,-4.8501,-4.8495,-4.8493,-4.8561,-4.8554,-4.8784,-4.8814,-4.862,-4.8622,-4.8623,0,-4.7864,-4.793,-4.7982,-4.8023,-4.8051,-4.8118,-4.8159,-4.8162,-4.8205,-4.8262,-4.8312,-4.838,-4.8435,-4.8547,-4.8569,-4.8631,-4.8622,-4.8698,-4.8631,-4.863,-4.8621,-4.8616,-4.8622,-4.8711,-4.8713,-4.8715,-4.8716,0,-4.8041,-4.8045,-4.8105,-4.8169,-4.8218,-4.8268,-4.8314,-4.8349,-4.8357,-4.8407,-4.8478,-4.8521,-4.8604,-4.8672,-4.8733,-4.8757,-4.8738,-4.8737,-4.8756,-4.8758,-4.8751,-4.8754,-4.8529,-4.8732,-4.873,-4.8729,-4.8728,-4.8728,-4.8167,-4.8225,-4.827,-4.8337,-4.8373,-4.8417,-4.8472,-4.8492,-4.8552,-4.8621,-4.8619,-4.8697,-4.874,-4.882,-4.8849,-4.8909,-4.8884,-4.8912,-4.8918,-4.8925,-4.8931,-4.8742,-4.892,-4.892,-4.8919,-4.8919,-4.8919,0,-4.8343,-4.837,-4.8433,-4.8498,-4.8551,-4.853,-4.858,-4.8625,-4.8694,-4.8736,-4.879,-4.8872,-4.8937,-4.8963,-4.9027,-4.907,-4.9062,-4.9086,-4.9082,-4.9088,-4.8951,-4.8927,-4.9091,-4.9091,-4.9091,-4.9091,-4.9091,-4.9091,-4.844,-4.8535,-4.8544,-4.8656,-4.8682,-4.876,-4.879,-4.8829,-4.8863,-4.8955,-4.9009,-4.9026,-4.9061,-4.9127,-4.9185,-4.9191,-4.9214,-4.9242,-4.9244,-4.9115,-4.9097,-4.9081,-4.9059,-4.9247,-4.9247,-4.9375,-4.9376,-4.9377]}]]